Year,Month,Day,Hour,Minute,Value (Times are PST for temperature in C)
2016,08,08,00,00,12.90
2016,08,08,00,01,12.90
2016,08,08,00,02,12.90
2016,08,08,00,03,12.90
2016,08,08,00,04,12.90
2016,08,08,00,05,12.90
2016,08,08,00,06,12.90
2016,08,08,00,07,12.90
2016,08,08,00,08,12.90
2016,08,08,00,09,12.80
2016,08,08,00,10,12.80
2016,08,08,00,11,12.80
2016,08,08,00,12,12.80
2016,08,08,00,13,12.80
2016,08,08,00,14,12.80
2016,08,08,00,15,12.80
2016,08,08,00,16,12.80
2016,08,08,00,17,12.70
2016,08,08,00,18,12.70
2016,08,08,00,19,12.70
2016,08,08,00,20,12.70
2016,08,08,00,21,12.70
2016,08,08,00,22,12.70
2016,08,08,00,23,12.70
2016,08,08,00,24,12.70
2016,08,08,00,25,12.70
2016,08,08,00,26,12.70
2016,08,08,00,27,12.70
2016,08,08,00,28,12.70
2016,08,08,00,29,12.70
2016,08,08,00,30,12.70
2016,08,08,00,31,12.70
2016,08,08,00,32,12.70
2016,08,08,00,33,12.70
2016,08,08,00,34,12.70
2016,08,08,00,35,12.70
2016,08,08,00,36,12.70
2016,08,08,00,37,12.70
2016,08,08,00,38,12.60
2016,08,08,00,39,12.60
2016,08,08,00,40,12.60
2016,08,08,00,41,12.60
2016,08,08,00,42,12.50
2016,08,08,00,43,12.50
2016,08,08,00,44,12.50
2016,08,08,00,45,12.50
2016,08,08,00,46,12.50
2016,08,08,00,47,12.50
2016,08,08,00,48,12.50
2016,08,08,00,49,12.50
2016,08,08,00,50,12.50
2016,08,08,00,51,12.50
2016,08,08,00,52,12.50
2016,08,08,00,53,12.60
2016,08,08,00,54,12.60
2016,08,08,00,55,12.60
2016,08,08,00,56,12.60
2016,08,08,00,57,12.60
2016,08,08,00,58,12.60
2016,08,08,00,59,12.60
2016,08,08,01,00,12.60
2016,08,08,01,01,12.50
2016,08,08,01,02,12.50
2016,08,08,01,03,12.50
2016,08,08,01,04,12.50
2016,08,08,01,05,12.40
2016,08,08,01,06,12.30
2016,08,08,01,07,12.30
2016,08,08,01,08,12.30
2016,08,08,01,09,12.30
2016,08,08,01,10,12.20
2016,08,08,01,11,12.20
2016,08,08,01,12,12.20
2016,08,08,01,13,12.20
2016,08,08,01,14,12.20
2016,08,08,01,15,12.20
2016,08,08,01,16,12.20
2016,08,08,01,17,12.20
2016,08,08,01,18,12.10
2016,08,08,01,19,12.10
2016,08,08,01,20,12.10
2016,08,08,01,21,12.10
2016,08,08,01,22,12.00
2016,08,08,01,23,12.00
2016,08,08,01,24,12.00
2016,08,08,01,25,12.00
2016,08,08,01,26,12.00
2016,08,08,01,27,12.00
2016,08,08,01,28,12.00
2016,08,08,01,29,12.00
2016,08,08,01,30,12.00
2016,08,08,01,31,12.00
2016,08,08,01,32,12.00
2016,08,08,01,33,12.00
2016,08,08,01,34,12.10
2016,08,08,01,35,12.10
2016,08,08,01,36,12.10
2016,08,08,01,37,12.10
2016,08,08,01,38,12.10
2016,08,08,01,39,12.10
2016,08,08,01,40,12.10
2016,08,08,01,41,12.10
2016,08,08,01,42,12.10
2016,08,08,01,43,12.20
2016,08,08,01,44,12.20
2016,08,08,01,45,12.20
2016,08,08,01,46,12.20
2016,08,08,01,47,12.20
2016,08,08,01,48,12.20
2016,08,08,01,49,12.20
2016,08,08,01,50,12.20
2016,08,08,01,51,12.20
2016,08,08,01,52,12.20
2016,08,08,01,53,12.20
2016,08,08,01,54,12.20
2016,08,08,01,55,12.20
2016,08,08,01,56,12.20
2016,08,08,01,57,12.20
2016,08,08,01,58,12.20
2016,08,08,01,59,12.20
2016,08,08,02,00,12.20
2016,08,08,02,01,12.20
2016,08,08,02,02,12.20
2016,08,08,02,03,12.20
2016,08,08,02,04,12.20
2016,08,08,02,05,12.20
2016,08,08,02,06,12.10
2016,08,08,02,07,12.10
2016,08,08,02,08,12.10
2016,08,08,02,09,12.10
2016,08,08,02,10,12.10
2016,08,08,02,11,12.10
2016,08,08,02,12,12.10
2016,08,08,02,13,12.10
2016,08,08,02,14,12.10
2016,08,08,02,15,12.10
2016,08,08,02,16,12.00
2016,08,08,02,17,12.00
2016,08,08,02,18,12.00
2016,08,08,02,19,12.00
2016,08,08,02,20,11.90
2016,08,08,02,21,11.90
2016,08,08,02,22,11.90
2016,08,08,02,23,11.90
2016,08,08,02,24,11.80
2016,08,08,02,25,11.80
2016,08,08,02,26,11.80
2016,08,08,02,27,11.80
2016,08,08,02,28,11.70
2016,08,08,02,29,11.70
2016,08,08,02,30,11.70
2016,08,08,02,31,11.60
2016,08,08,02,32,11.60
2016,08,08,02,33,11.60
2016,08,08,02,34,11.60
2016,08,08,02,35,11.60
2016,08,08,02,36,11.60
2016,08,08,02,37,11.60
2016,08,08,02,38,11.70
2016,08,08,02,39,11.70
2016,08,08,02,40,11.70
2016,08,08,02,41,11.70
2016,08,08,02,42,11.80
2016,08,08,02,43,11.80
2016,08,08,02,44,11.70
2016,08,08,02,45,11.70
2016,08,08,02,46,11.70
2016,08,08,02,47,11.70
2016,08,08,02,48,11.70
2016,08,08,02,49,11.70
2016,08,08,02,50,11.70
2016,08,08,02,51,11.60
2016,08,08,02,52,11.60
2016,08,08,02,53,11.60
2016,08,08,02,54,11.60
2016,08,08,02,55,11.60
2016,08,08,02,56,11.50
2016,08,08,02,57,11.40
2016,08,08,02,58,11.40
2016,08,08,02,59,11.40
2016,08,08,03,00,11.40
2016,08,08,03,01,11.40
2016,08,08,03,02,11.40
2016,08,08,03,03,11.40
2016,08,08,03,04,11.40
2016,08,08,03,05,11.40
2016,08,08,03,06,11.40
2016,08,08,03,07,11.40
2016,08,08,03,08,11.40
2016,08,08,03,09,11.40
2016,08,08,03,10,11.40
2016,08,08,03,11,11.40
2016,08,08,03,12,11.40
2016,08,08,03,13,11.40
2016,08,08,03,14,11.40
2016,08,08,03,15,11.40
2016,08,08,03,16,11.40
2016,08,08,03,17,11.40
2016,08,08,03,18,11.40
2016,08,08,03,19,11.40
2016,08,08,03,20,11.40
2016,08,08,03,21,11.30
2016,08,08,03,22,11.30
2016,08,08,03,23,11.30
2016,08,08,03,24,11.30
2016,08,08,03,25,11.30
2016,08,08,03,26,11.30
2016,08,08,03,27,11.30
2016,08,08,03,28,11.30
2016,08,08,03,29,11.30
2016,08,08,03,30,11.30
2016,08,08,03,31,11.30
2016,08,08,03,32,11.30
2016,08,08,03,33,11.30
2016,08,08,03,34,11.30
2016,08,08,03,35,11.30
2016,08,08,03,36,11.30
2016,08,08,03,37,11.30
2016,08,08,03,38,11.20
2016,08,08,03,39,11.20
2016,08,08,03,40,11.20
2016,08,08,03,41,11.20
2016,08,08,03,42,11.20
2016,08,08,03,43,11.20
2016,08,08,03,44,11.20
2016,08,08,03,45,11.20
2016,08,08,03,46,11.20
2016,08,08,03,47,11.20
2016,08,08,03,48,11.20
2016,08,08,03,49,11.20
2016,08,08,03,50,11.20
2016,08,08,03,51,11.20
2016,08,08,03,52,11.20
2016,08,08,03,53,11.20
2016,08,08,03,54,11.20
2016,08,08,03,55,11.20
2016,08,08,03,56,11.30
2016,08,08,03,57,11.30
2016,08,08,03,58,11.30
2016,08,08,03,59,11.40
2016,08,08,04,00,11.40
2016,08,08,04,01,11.40
2016,08,08,04,02,11.40
2016,08,08,04,03,11.40
2016,08,08,04,04,11.40
2016,08,08,04,05,11.40
2016,08,08,04,06,11.50
2016,08,08,04,07,11.60
2016,08,08,04,08,11.60
2016,08,08,04,09,11.60
2016,08,08,04,10,11.60
2016,08,08,04,11,11.60
2016,08,08,04,12,11.60
2016,08,08,04,13,11.40
2016,08,08,04,14,11.40
2016,08,08,04,15,11.40
2016,08,08,04,16,11.40
2016,08,08,04,17,11.40
2016,08,08,04,18,11.40
2016,08,08,04,19,11.40
2016,08,08,04,20,11.40
2016,08,08,04,21,11.40
2016,08,08,04,22,11.40
2016,08,08,04,23,11.40
2016,08,08,04,24,11.40
2016,08,08,04,25,11.40
2016,08,08,04,26,11.40
2016,08,08,04,27,11.40
2016,08,08,04,28,11.40
2016,08,08,04,29,11.40
2016,08,08,04,30,11.40
2016,08,08,04,31,11.40
2016,08,08,04,32,11.40
2016,08,08,04,33,11.40
2016,08,08,04,34,11.40
2016,08,08,04,35,11.40
2016,08,08,04,36,11.40
2016,08,08,04,37,11.50
2016,08,08,04,38,11.60
2016,08,08,04,39,11.60
2016,08,08,04,40,11.60
2016,08,08,04,41,11.60
2016,08,08,04,42,11.60
2016,08,08,04,43,11.60
2016,08,08,04,44,11.60
2016,08,08,04,45,11.60
2016,08,08,04,46,11.60
2016,08,08,04,47,11.60
2016,08,08,04,48,11.60
2016,08,08,04,49,11.60
2016,08,08,04,50,11.60
2016,08,08,04,51,11.60
2016,08,08,04,52,11.60
2016,08,08,04,53,11.60
2016,08,08,04,54,11.60
2016,08,08,04,55,11.60
2016,08,08,04,56,11.60
2016,08,08,04,57,11.60
2016,08,08,04,58,11.60
2016,08,08,04,59,11.60
2016,08,08,05,00,11.60
2016,08,08,05,01,11.60
2016,08,08,05,02,11.60
2016,08,08,05,03,11.60
2016,08,08,05,04,11.60
2016,08,08,05,05,11.70
2016,08,08,05,06,11.70
2016,08,08,05,07,11.70
2016,08,08,05,08,11.70
2016,08,08,05,09,11.70
2016,08,08,05,10,11.70
2016,08,08,05,11,11.60
2016,08,08,05,12,11.60
2016,08,08,05,13,11.60
2016,08,08,05,14,11.60
2016,08,08,05,15,11.60
2016,08,08,05,16,11.60
2016,08,08,05,17,11.60
2016,08,08,05,18,11.60
2016,08,08,05,19,11.50
2016,08,08,05,20,11.50
2016,08,08,05,21,11.60
2016,08,08,05,22,11.60
2016,08,08,05,23,11.60
2016,08,08,05,24,11.60
2016,08,08,05,25,11.60
2016,08,08,05,26,11.60
2016,08,08,05,27,11.60
2016,08,08,05,28,11.60
2016,08,08,05,29,11.60
2016,08,08,05,30,11.60
2016,08,08,05,31,11.50
2016,08,08,05,32,11.40
2016,08,08,05,33,11.40
2016,08,08,05,34,11.40
2016,08,08,05,35,11.40
2016,08,08,05,36,11.30
2016,08,08,05,37,11.30
2016,08,08,05,38,11.30
2016,08,08,05,39,11.20
2016,08,08,05,40,11.20
2016,08,08,05,41,11.20
2016,08,08,05,42,11.20
2016,08,08,05,43,11.10
2016,08,08,05,44,11.10
2016,08,08,05,45,11.10
2016,08,08,05,46,11.10
2016,08,08,05,47,11.10
2016,08,08,05,48,11.20
2016,08,08,05,49,11.20
2016,08,08,05,50,11.20
2016,08,08,05,51,11.20
2016,08,08,05,52,11.20
2016,08,08,05,53,11.20
2016,08,08,05,54,11.20
2016,08,08,05,55,11.20
2016,08,08,05,56,11.20
2016,08,08,05,57,11.20
2016,08,08,05,58,11.10
2016,08,08,05,59,11.10
2016,08,08,06,00,11.10
2016,08,08,06,01,11.20
2016,08,08,06,02,11.20
2016,08,08,06,03,11.10
2016,08,08,06,04,11.10
2016,08,08,06,05,11.10
2016,08,08,06,06,11.10
2016,08,08,06,07,11.10
2016,08,08,06,08,11.10
2016,08,08,06,09,11.10
2016,08,08,06,10,11.20
2016,08,08,06,11,11.20
2016,08,08,06,12,11.20
2016,08,08,06,13,11.20
2016,08,08,06,14,11.20
2016,08,08,06,15,11.20
2016,08,08,06,16,11.20
2016,08,08,06,17,11.20
2016,08,08,06,18,11.20
2016,08,08,06,19,11.30
2016,08,08,06,20,11.30
2016,08,08,06,21,11.30
2016,08,08,06,22,11.30
2016,08,08,06,23,11.30
2016,08,08,06,24,11.30
2016,08,08,06,25,11.30
2016,08,08,06,26,11.30
2016,08,08,06,27,11.30
2016,08,08,06,28,11.30
2016,08,08,06,29,11.40
2016,08,08,06,30,11.40
2016,08,08,06,31,11.40
2016,08,08,06,32,11.40
2016,08,08,06,33,11.40
2016,08,08,06,34,11.60
2016,08,08,06,35,11.60
2016,08,08,06,36,11.60
2016,08,08,06,37,11.60
2016,08,08,06,38,11.60
2016,08,08,06,39,11.60
2016,08,08,06,40,11.60
2016,08,08,06,41,11.60
2016,08,08,06,42,11.60
2016,08,08,06,43,11.60
2016,08,08,06,44,11.60
2016,08,08,06,45,11.60
2016,08,08,06,46,11.60
2016,08,08,06,47,11.60
2016,08,08,06,48,11.60
2016,08,08,06,49,11.60
2016,08,08,06,50,11.60
2016,08,08,06,51,11.60
2016,08,08,06,52,11.60
2016,08,08,06,53,11.60
2016,08,08,06,54,11.60
2016,08,08,06,55,11.60
2016,08,08,06,56,11.60
2016,08,08,06,57,11.60
2016,08,08,06,58,11.60
2016,08,08,06,59,11.60
2016,08,08,07,00,11.60
2016,08,08,07,01,11.60
2016,08,08,07,02,11.60
2016,08,08,07,03,11.60
2016,08,08,07,04,11.60
2016,08,08,07,05,11.60
2016,08,08,07,06,11.60
2016,08,08,07,07,11.60
2016,08,08,07,08,11.60
2016,08,08,07,09,11.60
2016,08,08,07,10,11.60
2016,08,08,07,11,11.60
2016,08,08,07,12,11.70
2016,08,08,07,13,11.70
2016,08,08,07,14,11.80
2016,08,08,07,15,11.80
2016,08,08,07,16,11.80
2016,08,08,07,17,11.90
2016,08,08,07,18,11.90
2016,08,08,07,19,12.00
2016,08,08,07,20,12.00
2016,08,08,07,21,12.10
2016,08,08,07,22,12.10
2016,08,08,07,23,12.20
2016,08,08,07,24,12.20
2016,08,08,07,25,12.30
2016,08,08,07,26,12.30
2016,08,08,07,27,12.30
2016,08,08,07,28,12.40
2016,08,08,07,29,12.40
2016,08,08,07,30,12.50
2016,08,08,07,31,12.50
2016,08,08,07,32,12.60
2016,08,08,07,33,12.60
2016,08,08,07,34,12.70
2016,08,08,07,35,12.80
2016,08,08,07,36,12.80
2016,08,08,07,37,12.90
2016,08,08,07,38,13.00
2016,08,08,07,39,13.10
2016,08,08,07,40,13.20
2016,08,08,07,41,13.30
2016,08,08,07,42,13.30
2016,08,08,07,43,13.40
2016,08,08,07,44,13.50
2016,08,08,07,45,13.60
2016,08,08,07,46,13.80
2016,08,08,07,47,14.00
2016,08,08,07,48,14.20
2016,08,08,07,49,14.30
2016,08,08,07,50,14.50
2016,08,08,07,51,14.60
2016,08,08,07,52,14.70
2016,08,08,07,53,14.80
2016,08,08,07,54,15.00
2016,08,08,07,55,15.10
2016,08,08,07,56,15.20
2016,08,08,07,57,15.30
2016,08,08,07,58,15.40
2016,08,08,07,59,15.50
2016,08,08,08,00,15.60
2016,08,08,08,01,15.70
2016,08,08,08,02,15.70
2016,08,08,08,03,15.80
2016,08,08,08,04,15.90
2016,08,08,08,05,16.00
2016,08,08,08,06,16.10
2016,08,08,08,07,16.10
2016,08,08,08,08,16.20
2016,08,08,08,09,16.20
2016,08,08,08,10,16.20
2016,08,08,08,11,16.20
2016,08,08,08,12,16.20
2016,08,08,08,13,16.20
2016,08,08,08,14,16.20
2016,08,08,08,15,16.10
2016,08,08,08,16,16.10
2016,08,08,08,17,16.10
2016,08,08,08,18,16.10
2016,08,08,08,19,16.00
2016,08,08,08,20,15.90
2016,08,08,08,21,15.80
2016,08,08,08,22,15.80
2016,08,08,08,23,15.70
2016,08,08,08,24,15.80
2016,08,08,08,25,15.80
2016,08,08,08,26,15.80
2016,08,08,08,27,15.80
2016,08,08,08,28,15.90
2016,08,08,08,29,16.00
2016,08,08,08,30,16.10
2016,08,08,08,31,16.10
2016,08,08,08,32,16.20
2016,08,08,08,33,16.30
2016,08,08,08,34,16.40
2016,08,08,08,35,16.50
2016,08,08,08,36,16.70
2016,08,08,08,37,16.80
2016,08,08,08,38,16.90
2016,08,08,08,39,17.00
2016,08,08,08,40,17.10
2016,08,08,08,41,17.20
2016,08,08,08,42,17.20
2016,08,08,08,43,17.30
2016,08,08,08,44,17.30
2016,08,08,08,45,17.30
2016,08,08,08,46,17.30
2016,08,08,08,47,17.40
2016,08,08,08,48,17.50
2016,08,08,08,49,17.70
2016,08,08,08,50,17.80
2016,08,08,08,51,17.80
2016,08,08,08,52,17.80
2016,08,08,08,53,17.70
2016,08,08,08,54,17.70
2016,08,08,08,55,17.60
2016,08,08,08,56,17.50
2016,08,08,08,57,17.50
2016,08,08,08,58,17.50
2016,08,08,08,59,17.50
2016,08,08,09,00,17.50
2016,08,08,09,01,17.60
2016,08,08,09,02,17.60
2016,08,08,09,03,17.70
2016,08,08,09,04,17.80
2016,08,08,09,05,17.90
2016,08,08,09,06,18.00
2016,08,08,09,07,18.10
2016,08,08,09,08,18.20
2016,08,08,09,09,18.30
2016,08,08,09,10,18.30
2016,08,08,09,11,18.50
2016,08,08,09,12,18.50
2016,08,08,09,13,18.60
2016,08,08,09,14,18.70
2016,08,08,09,15,18.80
2016,08,08,09,16,18.80
2016,08,08,09,17,18.70
2016,08,08,09,18,18.60
2016,08,08,09,19,18.60
2016,08,08,09,20,18.50
2016,08,08,09,21,18.50
2016,08,08,09,22,18.40
2016,08,08,09,23,18.40
2016,08,08,09,24,18.50
2016,08,08,09,25,18.40
2016,08,08,09,26,18.40
2016,08,08,09,27,18.40
2016,08,08,09,28,18.30
2016,08,08,09,29,18.30
2016,08,08,09,30,18.20
2016,08,08,09,31,18.20
2016,08,08,09,32,18.30
2016,08,08,09,33,18.30
2016,08,08,09,34,18.30
2016,08,08,09,35,18.30
2016,08,08,09,36,18.30
2016,08,08,09,37,18.20
2016,08,08,09,38,18.20
2016,08,08,09,39,18.10
2016,08,08,09,40,18.10
2016,08,08,09,41,18.10
2016,08,08,09,42,18.10
2016,08,08,09,43,18.20
2016,08,08,09,44,18.20
2016,08,08,09,45,18.30
2016,08,08,09,46,18.40
2016,08,08,09,47,18.40
2016,08,08,09,48,18.50
2016,08,08,09,49,18.70
2016,08,08,09,50,18.80
2016,08,08,09,51,18.90
2016,08,08,09,52,19.00
2016,08,08,09,53,19.10
2016,08,08,09,54,19.10
2016,08,08,09,55,19.10
2016,08,08,09,56,19.20
2016,08,08,09,57,19.30
2016,08,08,09,58,19.40
2016,08,08,09,59,19.50
2016,08,08,10,00,19.60
2016,08,08,10,01,19.70
2016,08,08,10,02,19.80
2016,08,08,10,03,19.90
2016,08,08,10,04,20.00
2016,08,08,10,05,20.10
2016,08,08,10,06,20.20
2016,08,08,10,07,20.40
2016,08,08,10,08,20.50
2016,08,08,10,09,20.50
2016,08,08,10,10,20.60
2016,08,08,10,11,20.60
2016,08,08,10,12,20.60
2016,08,08,10,13,20.60
2016,08,08,10,14,20.60
2016,08,08,10,15,20.70
2016,08,08,10,16,20.70
2016,08,08,10,17,20.70
2016,08,08,10,18,20.60
2016,08,08,10,19,20.50
2016,08,08,10,20,20.50
2016,08,08,10,21,20.50
2016,08,08,10,22,20.40
2016,08,08,10,23,20.40
2016,08,08,10,24,20.30
2016,08,08,10,25,20.20
2016,08,08,10,26,20.20
2016,08,08,10,27,20.30
2016,08,08,10,28,20.40
2016,08,08,10,29,20.40
2016,08,08,10,30,20.40
2016,08,08,10,31,20.30
2016,08,08,10,32,20.40
2016,08,08,10,33,20.50
2016,08,08,10,34,20.50
2016,08,08,10,35,20.60
2016,08,08,10,36,20.70
2016,08,08,10,37,20.80
2016,08,08,10,38,20.90
2016,08,08,10,39,21.00
2016,08,08,10,40,20.90
2016,08,08,10,41,20.90
2016,08,08,10,42,21.00
2016,08,08,10,43,21.00
2016,08,08,10,44,21.00
2016,08,08,10,45,21.00
2016,08,08,10,46,21.00
2016,08,08,10,47,21.00
2016,08,08,10,48,21.10
2016,08,08,10,49,21.00
2016,08,08,10,50,20.90
2016,08,08,10,51,20.90
2016,08,08,10,52,20.70
2016,08,08,10,53,20.50
2016,08,08,10,54,20.40
2016,08,08,10,55,20.30
2016,08,08,10,56,20.20
2016,08,08,10,57,20.20
2016,08,08,10,58,20.10
2016,08,08,10,59,20.00
2016,08,08,11,00,19.90
2016,08,08,11,01,20.00
2016,08,08,11,02,20.10
2016,08,08,11,03,20.10
2016,08,08,11,04,20.10
2016,08,08,11,05,20.10
2016,08,08,11,06,20.10
2016,08,08,11,07,20.10
2016,08,08,11,08,20.10
2016,08,08,11,09,20.00
2016,08,08,11,10,19.90
2016,08,08,11,11,19.90
2016,08,08,11,12,19.80
2016,08,08,11,13,19.70
2016,08,08,11,14,19.70
2016,08,08,11,15,19.70
2016,08,08,11,16,19.60
2016,08,08,11,17,19.60
2016,08,08,11,18,19.50
2016,08,08,11,19,19.40
2016,08,08,11,20,19.40
2016,08,08,11,21,19.40
2016,08,08,11,22,19.30
2016,08,08,11,23,19.30
2016,08,08,11,24,19.20
2016,08,08,11,25,19.20
2016,08,08,11,26,19.10
2016,08,08,11,27,19.10
2016,08,08,11,28,19.00
2016,08,08,11,29,18.90
2016,08,08,11,30,18.90
2016,08,08,11,31,18.90
2016,08,08,11,32,18.90
2016,08,08,11,33,18.90
2016,08,08,11,34,18.80
2016,08,08,11,35,18.80
2016,08,08,11,36,18.70
2016,08,08,11,37,18.70
2016,08,08,11,38,18.70
2016,08,08,11,39,18.60
2016,08,08,11,40,18.60
2016,08,08,11,41,18.60
2016,08,08,11,42,18.60
2016,08,08,11,43,18.60
2016,08,08,11,44,18.60
2016,08,08,11,45,18.60
2016,08,08,11,46,18.70
2016,08,08,11,47,18.80
2016,08,08,11,48,18.90
2016,08,08,11,49,18.90
2016,08,08,11,50,18.90
2016,08,08,11,51,18.90
2016,08,08,11,52,18.90
2016,08,08,11,53,18.90
2016,08,08,11,54,18.90
2016,08,08,11,55,18.90
2016,08,08,11,56,19.10
2016,08,08,11,57,19.10
2016,08,08,11,58,19.20
2016,08,08,11,59,19.30
2016,08,08,12,00,19.40
2016,08,08,12,01,19.60
2016,08,08,12,02,19.70
2016,08,08,12,03,19.90
2016,08,08,12,04,20.00
2016,08,08,12,05,20.10
2016,08,08,12,06,20.10
2016,08,08,12,07,20.10
2016,08,08,12,08,20.10
2016,08,08,12,09,20.10
2016,08,08,12,10,20.10
2016,08,08,12,11,20.20
2016,08,08,12,12,20.20
2016,08,08,12,13,20.20
2016,08,08,12,14,20.20
2016,08,08,12,15,20.20
2016,08,08,12,16,20.10
2016,08,08,12,17,20.10
2016,08,08,12,18,20.10
2016,08,08,12,19,20.10
2016,08,08,12,20,20.20
2016,08,08,12,21,20.30
2016,08,08,12,22,20.40
2016,08,08,12,23,20.50
2016,08,08,12,24,20.50
2016,08,08,12,25,20.50
2016,08,08,12,26,20.60
2016,08,08,12,27,20.50
2016,08,08,12,28,20.60
2016,08,08,12,29,20.50
2016,08,08,12,30,20.50
2016,08,08,12,31,20.40
2016,08,08,12,32,20.40
2016,08,08,12,33,20.40
2016,08,08,12,34,20.30
2016,08,08,12,35,20.30
2016,08,08,12,36,20.30
2016,08,08,12,37,20.20
2016,08,08,12,38,20.20
2016,08,08,12,39,20.30
2016,08,08,12,40,20.30
2016,08,08,12,41,20.30
2016,08,08,12,42,20.40
2016,08,08,12,43,20.50
2016,08,08,12,44,20.50
2016,08,08,12,45,20.60
2016,08,08,12,46,20.70
2016,08,08,12,47,20.70
2016,08,08,12,48,20.60
2016,08,08,12,49,20.50
2016,08,08,12,50,20.40
2016,08,08,12,51,20.40
2016,08,08,12,52,20.40
2016,08,08,12,53,20.50
2016,08,08,12,54,20.50
2016,08,08,12,55,20.60
2016,08,08,12,56,20.70
2016,08,08,12,57,20.80
2016,08,08,12,58,20.90
2016,08,08,12,59,21.00
2016,08,08,13,00,21.10
2016,08,08,13,01,21.10
2016,08,08,13,02,21.10
2016,08,08,13,03,21.00
2016,08,08,13,04,20.80
2016,08,08,13,05,20.70
2016,08,08,13,06,20.50
2016,08,08,13,07,20.50
2016,08,08,13,08,20.50
2016,08,08,13,09,20.50
2016,08,08,13,10,20.40
2016,08,08,13,11,20.50
2016,08,08,13,12,20.70
2016,08,08,13,13,20.80
2016,08,08,13,14,21.00
2016,08,08,13,15,21.10
2016,08,08,13,16,21.30
2016,08,08,13,17,21.30
2016,08,08,13,18,21.50
2016,08,08,13,19,21.60
2016,08,08,13,20,21.60
2016,08,08,13,21,21.60
2016,08,08,13,22,21.50
2016,08,08,13,23,21.30
2016,08,08,13,24,21.10
2016,08,08,13,25,21.00
2016,08,08,13,26,20.90
2016,08,08,13,27,20.90
2016,08,08,13,28,20.90
2016,08,08,13,29,21.00
2016,08,08,13,30,20.80
2016,08,08,13,31,20.80
2016,08,08,13,32,20.90
2016,08,08,13,33,20.80
2016,08,08,13,34,20.80
2016,08,08,13,35,20.80
2016,08,08,13,36,20.90
2016,08,08,13,37,21.00
2016,08,08,13,38,21.10
2016,08,08,13,39,21.30
2016,08,08,13,40,21.40
2016,08,08,13,41,21.50
2016,08,08,13,42,21.60
2016,08,08,13,43,21.50
2016,08,08,13,44,21.60
2016,08,08,13,45,21.60
2016,08,08,13,46,21.70
2016,08,08,13,47,21.80
2016,08,08,13,48,22.00
2016,08,08,13,49,22.00
2016,08,08,13,50,22.10
2016,08,08,13,51,22.00
2016,08,08,13,52,22.00
2016,08,08,13,53,22.00
2016,08,08,13,54,22.10
2016,08,08,13,55,22.00
2016,08,08,13,56,22.00
2016,08,08,13,57,21.90
2016,08,08,13,58,21.90
2016,08,08,13,59,21.80
2016,08,08,14,00,21.70
2016,08,08,14,01,21.70
2016,08,08,14,02,21.60
2016,08,08,14,03,21.60
2016,08,08,14,04,21.60
2016,08,08,14,05,21.50
2016,08,08,14,06,21.40
2016,08,08,14,07,21.40
2016,08,08,14,08,21.50
2016,08,08,14,09,21.60
2016,08,08,14,10,21.70
2016,08,08,14,11,21.70
2016,08,08,14,12,21.70
2016,08,08,14,13,21.70
2016,08,08,14,14,21.60
2016,08,08,14,15,21.70
2016,08,08,14,16,21.70
2016,08,08,14,17,21.70
2016,08,08,14,18,21.60
2016,08,08,14,19,21.70
2016,08,08,14,20,21.80
2016,08,08,14,21,21.70
2016,08,08,14,22,21.60
2016,08,08,14,23,21.60
2016,08,08,14,24,21.60
2016,08,08,14,25,21.60
2016,08,08,14,26,21.60
2016,08,08,14,27,21.60
2016,08,08,14,28,21.60
2016,08,08,14,29,21.60
2016,08,08,14,30,21.50
2016,08,08,14,31,21.40
2016,08,08,14,32,21.40
2016,08,08,14,33,21.40
2016,08,08,14,34,21.60
2016,08,08,14,35,21.60
2016,08,08,14,36,21.60
2016,08,08,14,37,21.60
2016,08,08,14,38,21.60
2016,08,08,14,39,21.70
2016,08,08,14,40,21.60
2016,08,08,14,41,21.60
2016,08,08,14,42,21.60
2016,08,08,14,43,21.50
2016,08,08,14,44,21.50
2016,08,08,14,45,21.60
2016,08,08,14,46,21.60
2016,08,08,14,47,21.60
2016,08,08,14,48,21.70
2016,08,08,14,49,21.80
2016,08,08,14,50,21.70
2016,08,08,14,51,21.70
2016,08,08,14,52,21.70
2016,08,08,14,53,21.60
2016,08,08,14,54,21.60
2016,08,08,14,55,21.50
2016,08,08,14,56,21.40
2016,08,08,14,57,21.40
2016,08,08,14,58,21.40
2016,08,08,14,59,21.30
2016,08,08,15,00,21.30
2016,08,08,15,01,21.30
2016,08,08,15,02,21.40
2016,08,08,15,03,21.50
2016,08,08,15,04,21.60
2016,08,08,15,05,21.70
2016,08,08,15,06,21.80
2016,08,08,15,07,21.90
2016,08,08,15,08,22.00
2016,08,08,15,09,22.10
2016,08,08,15,10,22.20
2016,08,08,15,11,22.20
2016,08,08,15,12,22.30
2016,08,08,15,13,22.30
2016,08,08,15,14,22.30
2016,08,08,15,15,22.40
2016,08,08,15,16,22.40
2016,08,08,15,17,22.40
2016,08,08,15,18,22.40
2016,08,08,15,19,22.50
2016,08,08,15,20,22.50
2016,08,08,15,21,22.60
2016,08,08,15,22,22.60
2016,08,08,15,23,22.70
2016,08,08,15,24,22.70
2016,08,08,15,25,22.70
2016,08,08,15,26,22.80
2016,08,08,15,27,22.70
2016,08,08,15,28,22.70
2016,08,08,15,29,22.70
2016,08,08,15,30,22.70
2016,08,08,15,31,22.60
2016,08,08,15,32,22.50
2016,08,08,15,33,22.30
2016,08,08,15,34,22.20
2016,08,08,15,35,22.10
2016,08,08,15,36,22.10
2016,08,08,15,37,22.10
2016,08,08,15,38,22.20
2016,08,08,15,39,22.30
2016,08,08,15,40,22.40
2016,08,08,15,41,22.40
2016,08,08,15,42,22.40
2016,08,08,15,43,22.50
2016,08,08,15,44,22.60
2016,08,08,15,45,22.70
2016,08,08,15,46,22.70
2016,08,08,15,47,22.80
2016,08,08,15,48,22.80
2016,08,08,15,49,22.90
2016,08,08,15,50,22.90
2016,08,08,15,51,22.90
2016,08,08,15,52,22.90
2016,08,08,15,53,22.90
2016,08,08,15,54,22.90
2016,08,08,15,55,23.10
2016,08,08,15,56,23.10
2016,08,08,15,57,23.10
2016,08,08,15,58,23.10
2016,08,08,15,59,23.10
2016,08,08,16,00,23.10
2016,08,08,16,01,23.10
2016,08,08,16,02,23.00
2016,08,08,16,03,22.90
2016,08,08,16,04,22.70
2016,08,08,16,05,22.50
2016,08,08,16,06,22.40
2016,08,08,16,07,22.30
2016,08,08,16,08,22.30
2016,08,08,16,09,22.30
2016,08,08,16,10,22.30
2016,08,08,16,11,22.20
2016,08,08,16,12,22.20
2016,08,08,16,13,22.20
2016,08,08,16,14,22.20
2016,08,08,16,15,22.20
2016,08,08,16,16,22.10
2016,08,08,16,17,22.00
2016,08,08,16,18,22.00
2016,08,08,16,19,22.00
2016,08,08,16,20,21.90
2016,08,08,16,21,21.90
2016,08,08,16,22,21.80
2016,08,08,16,23,21.70
2016,08,08,16,24,21.70
2016,08,08,16,25,21.70
2016,08,08,16,26,21.60
2016,08,08,16,27,21.60
2016,08,08,16,28,21.60
2016,08,08,16,29,21.60
2016,08,08,16,30,21.60
2016,08,08,16,31,21.60
2016,08,08,16,32,21.60
2016,08,08,16,33,21.60
2016,08,08,16,34,21.60
2016,08,08,16,35,21.60
2016,08,08,16,36,21.60
2016,08,08,16,37,21.60
2016,08,08,16,38,21.60
2016,08,08,16,39,21.60
2016,08,08,16,40,21.60
2016,08,08,16,41,21.70
2016,08,08,16,42,21.70
2016,08,08,16,43,21.70
2016,08,08,16,44,21.70
2016,08,08,16,45,21.70
2016,08,08,16,46,21.70
2016,08,08,16,47,21.70
2016,08,08,16,48,21.70
2016,08,08,16,49,21.70
2016,08,08,16,50,21.70
2016,08,08,16,51,21.70
2016,08,08,16,52,21.70
2016,08,08,16,53,21.70
2016,08,08,16,54,21.60
2016,08,08,16,55,21.60
2016,08,08,16,56,21.60
2016,08,08,16,57,21.50
2016,08,08,16,58,21.40
2016,08,08,16,59,21.40
2016,08,08,17,00,21.30
2016,08,08,17,01,21.30
2016,08,08,17,02,21.30
2016,08,08,17,03,21.30
2016,08,08,17,04,21.30
2016,08,08,17,05,21.30
2016,08,08,17,06,21.30
2016,08,08,17,07,21.30
2016,08,08,17,08,21.40
2016,08,08,17,09,21.40
2016,08,08,17,10,21.40
2016,08,08,17,11,21.30
2016,08,08,17,12,21.30
2016,08,08,17,13,21.30
2016,08,08,17,14,21.30
2016,08,08,17,15,21.30
2016,08,08,17,16,21.20
2016,08,08,17,17,21.20
2016,08,08,17,18,21.20
2016,08,08,17,19,21.20